This is the latest recevied weather packets stored in our database for station/object HB9EKJ-13. If no packets are shown the sender has not sent any weather packets the latest 10 day(s).
| Time | Temp. | Humidity | Pressure | Rain* | Wind** | Luminosity | Snow |
|---|---|---|---|---|---|---|---|
| 1778145428 | 20° C | 15% | 1017.1 hPa | 0 mm | - | - | - |
| 1778144827 | 18.33° C | 15% | 1017.1 hPa | 0 mm | - | - | - |
| 1778144529 | 17.22° C | 16% | 1017.1 hPa | 0 mm | - | - | - |
| 1778143928 | 18.33° C | 15% | 1017.1 hPa | 0 mm | - | - | - |
| 1778143628 | 18.33° C | 15% | 1017.1 hPa | 0 mm | - | - | - |
| 1778143028 | 17.78° C | 16% | 1017.1 hPa | 0 mm | - | - | - |
| 1778142728 | 17.22° C | 16% | 1017.1 hPa | 0 mm | - | - | - |
| 1778142128 | 16.11° C | 16% | 1017.1 hPa | 0 mm | - | - | - |
| 1778140328 | 14.44° C | 19% | 1017.1 hPa | 0 mm | - | - | - |
| 1778140027 | 13.89° C | 22% | 1017.1 hPa | 0 mm | - | - | - |
| 1778139428 | 13.33° C | 25% | 1017.1 hPa | 0 mm | - | - | - |
| 1778139128 | 12.78° C | 25% | 1017.1 hPa | 0 mm | - | - | - |
| 1778138528 | 13.33° C | 27% | 1017.1 hPa | 0 mm | - | - | - |
| 1778138228 | 13.89° C | 30% | 1017.1 hPa | 0 mm | - | - | - |
| 1778137627 | 12.78° C | 35% | 1017.1 hPa | 0 mm | - | - | - |
| 1778137328 | 12.22° C | 35% | 1017.1 hPa | 0 mm | - | - | - |
| 1778136727 | 11.67° C | 36% | 1017.1 hPa | 0 mm | - | - | - |
| 1778136428 | 11.67° C | 36% | 1017.1 hPa | 0 mm | - | - | - |
| 1778135828 | 11.67° C | 37% | 1017.1 hPa | 0 mm | - | - | - |
| 1778134928 | 11.11° C | 37% | 1016 hPa | 0 mm | - | - | - |
| 1778134028 | 10.56° C | 37% | 1016 hPa | 0 mm | - | - | - |
| 1778133128 | 10.56° C | 37% | 1016 hPa | 0 mm | - | - | - |
| 1778132227 | 10° C | 37% | 1016 hPa | 0 mm | - | - | - |
| 1778131329 | 10° C | 37% | 1016 hPa | 0 mm | - | - | - |
| 1778129827 | 10° C | 37% | 1016 hPa | 0 mm | - | - | - |
* Rain latest hour (hover to see other rain measurements)
** Current wind speed in m/s (hover to see current wind gust speed)